Regional Weather Roundup
Issued by NWS

Home | Current Version | Previous Version | Text Only | Print | Product List | Glossary On
Versions: 1 2 3 4 5 6 7 8 9 10 11 12 13 14 15 16 17 18 19 20 21 22 23 24 25 26 27 28 29 30 31 32 33 34 35 36 37 38 39 40 41 42 43 44 45 46 47 48 49 50
000
ASUS43 KMPX 241801
RWRMN
WEATHER ROUNDUP FOR MINNESOTA
NATIONAL WEATHER SERVICE TWIN CITIES/CHANHASSEN MN
100 PM CDT THU APR 24 2014


NOTE: "FAIR" INDICATES FEW OR NO CLOUDS BELOW 12,000 FEET WITH NO
SIGNIFICANT WEATHER AND/OR OBSTRUCTIONS TO VISIBILITY. N/A MEANS
CURRENT SKY AND/OR WEATHER CONDITIONS ARE NOT AVAILABLE.

MNZ060>063-068>070-241900-
   Twin Cities Metro

CITY           SKY/WX    TMP DP  RH WIND       PRES   REMARKS
TWIN CITIES    LGT RAIN  41  41 100 E8        29.72F FOG
6HR MIN TEMP:  40; 6HR MAX TEMP:  42; 6HR PCP:  0.68;

ST PAUL        LGT RAIN  42  40  92 E7        29.73F FOG
CRYSTAL        LGT RAIN  42  39  89 E5        29.72F FOG
BLAINE         DRIZZLE   43  43 100 E6        29.73F
EDEN PRAIRIE   LGT RAIN  42  40  92 E6        29.70F FOG
6HR MIN TEMP:  41; 6HR MAX TEMP:  42; 6HR PCP:  0.46;

LAKEVILLE      DRIZZLE   39  39 100 E7        29.70F
SOUTH ST PAUL  CLOUDY    44  43  95 E3        29.72F FOG
LAKE ELMO      DRIZZLE   41  41 100 E5        29.73F
$$
MNZ001>005-007-008-013>017-022>024-027-028-241900-
   Northwest Minnesota

CITY           SKY/WX    TMP DP  RH WIND       PRES   REMARKS
BEMIDJI        LGT RAIN  37  37  98 E7        29.76F
HALLOCK        DRIZZLE   41  39  93 SE10      29.76S
ROSEAU         LGT RAIN  39  34  81 SE9       29.78F
WARROAD        MIX PCPN  39  36  87 E7        29.80F
THIEF RVR FALL CLOUDY    37  34  87 SE9       29.76F
CROOKSTON      MIX PCPN  39  39 100 SE13      29.74F
FOSSTON        RAIN      37  36  93 SE6       29.75F
DETROIT LAKES  LGT RAIN  36  36 100 SE7       29.75F
MOORHEAD       LGT RAIN  43  43 100 SE14      29.69F
PARK RAPIDS    LGT RAIN  37  36  96 SE3       29.75F FOG
$$
MNZ006-009>011-018-025>026-241900-
   North Central Minnesota

CITY           SKY/WX    TMP DP  RH WIND       PRES   REMARKS
BAUDETTE       LGT RAIN  39  37  92 SE7       29.81F FOG
FLAG ISLAND    DRIZZLE   37  36  93 E12       29.81F
INTL FALLS     LGT RAIN  38  36  92 SE15G21   29.83F
6HR MIN TEMP:  38; 6HR MAX TEMP:  39;

WASKISH        DRIZZLE   37  37 100 E9        29.79F
LONGVILLE      LGT RAIN  37  36  93 E5        29.76F
GRAND RAPIDS   CLOUDY    36  32  87 SE8       29.79F
CRANE LAKE     LGT RAIN  37  37 100 CALM      29.88F
ORR            DRIZZLE   36  34  93 E8        29.81F
COOK           CLOUDY    37  34  87 E8G18     29.83F
$$
MNZ012-019>021-037-241900-
   Northeast Minnesota

CITY           SKY/WX    TMP DP  RH WIND       PRES   REMARKS
DULUTH         LGT SNOW  33  31  92 E21       29.81F VSB 3/4 WCI  21
6HR MIN TEMP:  33; 6HR MAX TEMP:  36; 6HR PCP:  0.17;

ELY            FLURRIES  36  34  93 E17G24    29.87F
HIBBING        LGT RAIN  37  34  89 E13       29.81F
EVELETH        LGT RAIN  36  34  93 E10G17    29.83F
DULUTH HARBOR  MIX PCPN  34  32  93 NE15      29.86F WCI  24
TWO HARBORS    LGT SNOW  32  27  80 E14G22    29.86F VSB 3/4 WCI  22
SILVER BAY     LGT SNOW  30  30 100 NE14      29.90F VSB 1   WCI  20
GRAND MARAIS     N/A     37  29  72 E14G21    30.00F
G MARAIS ARPRT CLOUDY    36  21  55 E13G20    29.96F
$$
MNZ029>031-032-039>041-046>048-054>057-064-241900-
   West Central Minnesota

CITY           SKY/WX    TMP DP  RH WIND       PRES   REMARKS
FERGUS FALLS   LGT RAIN  39  37  93 E8        29.69F
WHEATON        PTSUNNY   45  45 100 SE3       29.74R
MORRIS         DRIZZLE   43  41  93 E7        29.69F
ALEXANDRIA     RAIN      39  35  86 CALM      29.73F FOG
ELBOW LAKE     LGT RAIN  40  39  97 E13       29.70F
WADENA         RAIN      37  36  93 E3        29.74F
GLENWOOD       RAIN      39  39 100 NE3       29.73F
APPLETON       LGT RAIN  45  43  93 E7        29.70F
BENSON         LGT RAIN  43  43 100 E8        29.70F
ORTONVILLE     CLOUDY    43  39  87 CALM      29.71S
MADISON        FAIR      48  45  87 CALM      29.72S
WILLMAR        RAIN      43  41  93 CALM      29.73S
$$
MNZ033>034-036-042>043-049>051-058-059-241900-
   Central Minnesota

CITY           SKY/WX    TMP DP  RH WIND       PRES   REMARKS
ST CLOUD       LGT RAIN  42  38  85 E5        29.73F
6HR MIN TEMP:  41; 6HR MAX TEMP:  43; 6HR PCP:  0.16;

SAUK CENTRE    LGT RAIN  40  39  96 E6        29.73F
PAYNESVILLE    DRIZZLE   41  39  94 CALM      29.72F
AITKIN         LGT RAIN  37  34  87 E5        29.76F
PINE RIVER     LGT RAIN  37  37 100 SE6       29.79F
BRAINERD       LGT RAIN  42  36  79 SE7       29.75F
STAPLES        HVY RAIN  37  36  93 SE3       29.74F
LONG PRAIRIE   CLOUDY    39  37  93 CALM      29.74F
LITTLE FALLS   MIX PCPN  37  36  93 E9        29.74F
LITCHFIELD     DRIZZLE   43  43 100 E7        29.71F
BUFFALO        DRIZZLE   40  38  91 E7        29.73F
MAPLE LAKE     CLOUDY    41  40  97 E7        29.73F
$$
MNZ037-044-045-052-053-241900-
   East Central Minnesota

CITY           SKY/WX    TMP DP  RH WIND       PRES   REMARKS
PRINCETON      RAIN      41  37  87 E9        29.75F
MORA           RAIN      36  34  93 E7        29.78F
CAMBRIDGE      RAIN      41  36  81 E6        29.73F
RUSH CITY      LGT RAIN  40  38  93 E6        29.76F
MOOSE LAKE     LGT SNOW  34  32  93 NE3       29.78F
HINCKLEY       LGT RAIN  37  37 100 E6        29.77F
CLOQUET        LGT SNOW  34  34 100 E10       29.80F WCI  26
MCGREGOR       CLOUDY    34  34 100 E8        29.78F WCI  27
$$
MNZ071>073-080-081-089-090-097-098-241900-
   Southwest Minnesota

CITY           SKY/WX    TMP DP  RH WIND       PRES   REMARKS
MONTEVIDEO     CLOUDY    45  45 100 E6        29.71S
GRANITE FALLS  CLOUDY    46  43  90 N7        29.71F
CANBY          PTSUNNY   45  43  92 NW5       29.73S
MARSHALL       PTSUNNY   46  39  76 N12       29.70S
REDWOOD FALLS  LGT RAIN  44  42  93 E6        29.69F FOG
OLIVIA         LGT RAIN  43  41  93 E3        29.70S
PIPESTONE      FAIR      50  45  81 N12G17    29.71S
WINDOM         LGT RAIN  46  43  87 NW6       29.69S
WORTHINGTON    PTSUNNY   46  37  71 N15       29.73R
JACKSON        DRIZZLE   45  43  93 N5        29.69S
TRACY          CLOUDY    47  44  87 N12       29.70S
SLAYTON        CLOUDY    45  43  91 N12       29.71R
$$
MNZ065>067-074>077-082>085-091>093-241900-
   South Central Minnesota

CITY           SKY/WX    TMP DP  RH WIND       PRES   REMARKS
MANKATO        CLOUDY    43  39  87 E6        29.70S
NEW ULM          N/A     43  43 100 CALM      29.70F FOG
ST JAMES       DRIZZLE   45  41  87 CALM      29.71R
FAIRMONT       CLOUDY    45  39  81 NW5       29.71R
GLENCOE        CLOUDY    42  39  89 E5        29.70F FOG
FARIBAULT      DRIZZLE   45  39  81 E6        29.69F
OWATONNA       DRIZZLE   43  41  93 SE5       29.68F
WASECA         LGT RAIN  41  36  81 SE5       29.70F
ALBERT LEA     DRIZZLE   45  43  93 S5        29.67S
$$
MNZ078>079-086>088-094>096-241900-
   Southeast Minnesota

CITY           SKY/WX    TMP DP  RH WIND       PRES   REMARKS
ROCHESTER      LGT RAIN  42  39  89 SE12      29.68F FOG
6HR MIN TEMP:  39; 6HR MAX TEMP:  42; 6HR PCP:  0.20;

RED WING       LGT RAIN  43  39  87 SE12      29.71F
STANTON        RAIN      43  39  88 CALM      29.69F
DODGE CENTER   RAIN      45  43  93 SE12      29.67F
WINONA         RAIN      43  41  93 E8        29.72F
AUSTIN         DRIZZLE   43  41  93 SE6       29.67F
PRESTON        LGT RAIN  42  40  93 SE9       29.69F
$$
ABBREVIATIONS USED IN REMARKS
   TC - TEMPERATURES IN CELSIUS
  WCI - WIND CHILL INDEX
   HX - HEAT INDEX
  VSB - VISIBILITY
$$



USA.gov is the U.S. government's official web portal to all federal, state and local government web resources and services.